Skip Page Navigation
NASA JPL Caltech
NASA Logo - Jet Propulsion Laboratory + View the NASA Portal
+ Center for Near-Earth Object Studies
JPL Home Earth Solar System Stars & Galaxies Technology
JPL Solar System Dynamics
BODIES ORBITS EPHEMERIDES TOOLS PHYSICAL DATA DISCOVERY FAQ SITE MAP
IMPORTANT: The SSD Announcement email list is now available. Major changes are coming in the near future, including possible hostname and/or URL changes. To be notified of such changes, subscribe to this email list.

Please visit this page for more details.


JPL Small-Body Database Browser
Search: [ help ]  
324625 (2007 AV29)
Classification: Main-belt Asteroid          SPK-ID: 2324625
Ephemeris | Orbit Diagram | Orbital Elements | Mission Design | Physical Parameters | Discovery Circumstances | Close-Approach Data ]

[ show orbit diagram ]
Orbital Elements at Epoch 2459000.5 (2020-May-31.0) TDB
Reference: JPL 16 (heliocentric ecliptic J2000)
 Element Value Uncertainty (1-sigma)   Units 
e .102406408618201 6.2407e-08  
a 2.760659052743924 2.9557e-08 au
q 2.477949873733094 1.7253e-07 au
i 4.373524527437844 6.8718e-06 deg
node 153.4421072794548 7.8112e-05 deg
peri 246.5284190968054 8.4455e-05 deg
M 47.25887690496791 2.8788e-05 deg
tp 2458780.562905678202
(2019-Oct-24.06290568)
0.00013439 TDB
period 1675.396436421115
4.59
2.6906e-05
7.366e-08
d
yr
n .214874516964481 3.4508e-09 deg/d
Q 3.043368231754754 3.2584e-08 au
  Orbit Determination Parameters
   # obs. used (total)      204  
   data-arc span      5224 days (14.30 yr)  
   first obs. used      2005-10-07  
   last obs. used      2020-01-26  
   planetary ephem.      DE431  
   SB-pert. ephem.      SB431-N16  
   condition code      0  
   norm. resid. RMS      .63443  
   source      ORB  
   producer      Otto Matic  
   solution date      2020-Feb-25 20:12:21  

Additional Information
 Earth MOID = 1.48955 au 
 Jupiter MOID = 2.33681 au 
 T_jup = 3.330 
[ hide covariance matrix ]
Orbital Elements at Epoch 2457233.5 (2015-Jul-30.0) TDB
Reference: JPL 16 (heliocentric ecliptic J2000)
 Element Value Uncertainty (1-sigma)   Units 
e .1006210916080649 6.2678e-08  
q 2.482339655315834 1.7277e-07 au
tp 2457097.595878398316
(2015-Mar-16.09587840)
0.00014363 TDB
node 153.5348153071014 7.7963e-05 deg
peri 244.9850634956209 8.457e-05 deg
i 4.376661117107814 6.8806e-06 deg
  Orbit Determination Parameters
   # obs. used (total)      204  
   data-arc span      5224 days (14.30 yr)  
   first obs. used      2005-10-07  
   last obs. used      2020-01-26  
   planetary ephem.      DE431  
   SB-pert. ephem.      SB431-N16  
   condition code      0  
   norm. resid. RMS      .63443  
   source      ORB  
   producer      Otto Matic  
   solution date      2020-Feb-25 20:12:21  

Additional Information
 Jupiter MOID = 2.33681 au 
 T_jup = 3.330 
Orbit Covariance (6×6)
  e q tp node peri i
e 3.928484892206155E-15 -1.070192761479905E-14 -3.574553622617707E-12 1.004421807561867E-15 -8.170375402395891E-13 -3.722410564484678E-15
q -1.070192761479905E-14 2.985005997248209E-14 8.692286021594153E-12 1.533362826942365E-15 2.000113135892193E-12 1.096823222462726E-14
tp -3.574553622617707E-12 8.692286021594153E-12 2.062925559205036E-8 -3.485276011906449E-11 4.74812432476383E-9 -2.133133428787144E-13
node 1.004421807561867E-15 1.533362826942365E-15 -3.485276011906449E-11 6.078181436277624E-9 -6.067939937638639E-9 2.297874911995584E-10
peri -8.170375402395891E-13 2.000113135892193E-12 4.74812432476383E-9 -6.067939937638639E-9 7.152048994094061E-9 -2.29144329827698E-10
i -3.722410564484678E-15 1.096823222462726E-14 -2.133133428787144E-13 2.297874911995584E-10 -2.29144329827698E-10 4.734268595563506E-11

Ephemeris | Orbit Diagram | Orbital Elements | Mission Design | Physical Parameters | Discovery Circumstances | Close-Approach Data ]

Physical Parameter Table
Parameter Symbol Value Units Sigma Reference Notes
absolute magnitude H 16.5   n/a MPO503349  

324625 (2007 AV29)          Discovered 2007-Jan-10 by Mt. Lemmon Survey at Mount Lemmon
Reference: 20120406/Numbers.arcLast Updated: 2012-04-09

[ show close-approach data ]
Ephemeris | Orbit Diagram | Orbital Elements | Mission Design | Physical Parameters | Discovery Circumstances | Close-Approach Data ]
ABOUT SSD CREDITS/AWARDS PRIVACY/COPYRIGHT GLOSSARY LINKS
FirstGov 2020-Mar-30 11:31 UT
(server date/time)  
NASA Home Page
Site Manager:   Ryan S. Park
Webmaster  Alan B. Chamberlin